CW7500 Weather Reports


Display with metric or nautical units.
time (UTC)temp
F
wind
direction
speed
MPH
gust
MPH
rain 1hr
in
rain 24hr
in
rain mn
in
humidity
%
barometer
mb
20260506204524 59 190 2.0 8.0 0.02 0.06 0.06 96 1005.5
20260506203523 59 89 3.0 6.0 0.04 0.06 0.06 96 1005.7
20260506203023 59 181 3.0 10.0 0.04 0.06 0.06 95 1005.7
20260506201523 59 202 2.0 7.0 0.04 0.06 0.06 96 1005.7
20260506201023 59 210 3.0 10.0 0.06 0.06 0.06 94 1005.7
20260506200523 59 180 3.0 9.0 0.06 0.06 0.06 94 1005.7
20260506195523 60 198 3.0 9.0 0.06 0.06 0.06 93 1005.7
20260506195023 60 128 2.0 6.0 0.04 0.04 0.04 95 1005.7
20260506194523 60 171 2.0 3.0 0.04 0.04 0.04 96 1005.7
20260506194024 60 102 2.0 6.0 0.02 0.02 0.02 95 1005.5
20260506193523 60 113 2.0 5.0 0.02 0.02 0.02 93 1005.7
20260506193024 60 180 1.0 3.0 0.02 0.02 0.02 93 1005.8
20260506192523 60 299 3.0 5.0 0.02 0.02 0.02 92 1005.9
20260506191023 61 173 2.0 7.0 0.00 0.00 0.00 91 1005.9
20260506190524 61 197 3.0 8.0 0.00 0.00 0.00 89 1005.8
20260506190023 62 216 3.0 8.0 0.00 0.00 0.00 86 1006.0
20260506185523 63 209 4.0 8.0 0.00 0.00 0.00 81 1005.9
20260506185024 64 212 3.0 6.0 0.00 0.00 0.00 76 1005.9
20260506184523 65 189 5.0 8.0 0.00 0.00 0.00 71 1005.9
20260506184024 65 174 3.0 9.0 0.00 0.00 0.00 69 1006.0
20260506183523 66 241 3.0 10.0 0.00 0.00 0.00 67 1006.0
20260506183023 66 203 2.0 5.0 0.00 0.00 0.00 70 1006.3
20260506182523 67 235 3.0 9.0 0.00 0.00 0.00 68 1006.3
20260506182023 67 111 2.0 10.0 0.00 0.00 0.00 64 1006.1
20260506181523 68 237 4.0 10.0 0.00 0.00 0.00 61 1006.4
20260506175524 69 131 2.0 9.0 0.00 0.00 0.00 59 1006.4
20260506175023 69 231 3.0 10.0 0.00 0.00 0.00 56 1006.2
20260506174523 69 298 6.0 13.0 0.00 0.00 0.00 56 1006.3
20260506174023 70 215 4.0 10.0 0.00 0.00 0.00 56 1006.3
20260506173523 70 210 4.0 12.0 0.00 0.00 0.00 53 1006.2
20260506172523 70 157 3.0 13.0 0.00 0.00 0.00 53 1006.4
20260506171523 71 213 5.0 13.0 0.00 0.00 0.00 53 1006.4
20260506171023 71 217 4.0 15.0 0.00 0.00 0.00 52 1006.6
20260506170522 72 208 3.0 9.0 0.00 0.00 0.00 50 1006.3
20260506170023 72 222 4.0 10.0 0.00 0.00 0.00 52 1006.3
20260506165523 72 233 5.0 10.0 0.00 0.00 0.00 51 1006.6
20260506165023 71 188 5.0 12.0 0.00 0.00 0.00 53 1006.6
20260506164523 70 241 5.0 9.0 0.00 0.00 0.00 54 1006.6
20260506164023 70 147 4.0 10.0 0.00 0.00 0.00 54 1006.7
20260506163523 70 195 3.0 9.0 0.00 0.00 0.00 53 1006.8
20260506163023 70 144 3.0 9.0 0.00 0.00 0.00 54 1006.8
20260506162523 70 215 6.0 13.0 0.00 0.00 0.00 53 1006.8
20260506162023 71 115 3.0 7.0 0.00 0.00 0.00 53 1006.9
20260506161523 72 201 2.0 3.0 0.00 0.00 0.00 55 1007.0
20260506161022 72 93 2.0 7.0 0.00 0.00 0.00 53 1007.1
20260506160523 71 227 3.0 7.0 0.00 0.00 0.00 51 1007.1
20260506160022 71 192 5.0 15.0 0.00 0.00 0.00 52 1007.1
20260506155523 71 209 3.0 7.0 0.00 0.00 0.00 53 1007.4
20260506155022 71 250 3.0 7.0 0.00 0.00 0.00 55 1007.5
20260506154522 70 218 2.0 5.0 0.00 0.00 0.00 58 1007.6
20260506153523 70 223 3.0 9.0 0.00 0.00 0.00 56 1007.6
20260506153023 71 255 3.0 7.0 0.00 0.00 0.00 57 1007.7
20260506152522 71 350 3.0 8.0 0.00 0.00 0.00 56 1007.8
20260506152022 71 185 2.0 7.0 0.00 0.00 0.00 57 1007.9
20260506151023 70 242 3.0 8.0 0.00 0.00 0.00 55 1007.7
20260506150523 70 232 4.0 9.0 0.00 0.00 0.00 54 1007.8
20260506145523 70 259 3.0 7.0 0.00 0.00 0.00 55 1008.0
20260506145023 70 62 5.0 13.0 0.00 0.00 0.00 58 1007.9
20260506143522 70 264 2.0 9.0 0.00 0.00 0.00 58 1007.8
20260506143022 70 197 4.0 9.0 0.00 0.00 0.00 57 1008.0
20260506142023 70 266 3.0 7.0 0.00 0.00 0.00 59 1007.7
20260506141523 70 94 5.0 12.0 0.00 0.00 0.00 62 1007.7
20260506140523 69 210 3.0 9.0 0.00 0.00 0.00 58 1007.9
20260506140022 70 241 3.0 7.0 0.00 0.00 0.00 57 1007.7
20260506135523 69 234 4.0 9.0 0.00 0.00 0.00 60 1007.7
20260506135023 69 211 3.0 10.0 0.00 0.00 0.00 60 1007.9
20260506134522 69 183 5.0 10.0 0.00 0.00 0.00 60 1007.7
20260506134022 69 214 2.0 8.0 0.00 0.00 0.00 63 1007.7
20260506133523 68 202 2.0 8.0 0.00 0.00 0.00 62 1008.0
20260506133023 68 219 3.0 6.0 0.00 0.00 0.00 65 1008.2
20260506132522 66 181 3.0 9.0 0.00 0.00 0.00 70 1008.6
20260506132023 65 244 3.0 10.0 0.00 0.00 0.00 68 1008.5
20260506131522 65 230 2.0 6.0 0.00 0.00 0.00 70 1008.6
20260506131022 65 231 3.0 7.0 0.00 0.00 0.00 70 1008.7
20260506130522 65 310 2.0 8.0 0.00 0.00 0.00 71 1008.6
20260506130022 65 215 4.0 9.0 0.00 0.00 0.00 70 1008.6
20260506125522 65 166 2.0 8.0 0.00 0.00 0.00 71 1008.6
20260506125022 65 88 2.0 5.0 0.00 0.00 0.00 70 1008.4
20260506124022 64 229 2.0 5.0 0.00 0.00 0.00 72 1008.7
20260506123522 63 137 2.0 6.0 0.00 0.00 0.00 75 1008.7
20260506123023 63 166 3.0 5.0 0.00 0.00 0.00 74 1008.7
20260506122522 63 188 2.0 5.0 0.00 0.00 0.00 75 1008.7
20260506122023 63 203 3.0 7.0 0.00 0.00 0.00 76 1008.7
20260506121522 62 234 3.0 8.0 0.00 0.00 0.00 77 1008.6
20260506121022 62 201 3.0 7.0 0.00 0.00 0.00 76 1008.7
20260506120522 62 264 2.0 12.0 0.00 0.00 0.00 77 1008.6
20260506115522 61 181 2.0 5.0 0.00 0.00 0.00 79 1008.7
20260506115022 60 134 3.0 6.0 0.00 0.00 0.00 81 1009.0
20260506114522 60 226 2.0 8.0 0.00 0.00 0.00 81 1009.0
20260506113522 60 207 2.0 5.0 0.00 0.00 0.00 81 1008.9
20260506112522 60 153 2.0 6.0 0.00 0.00 0.00 83 1009.1
20260506112022 60 183 2.0 6.0 0.00 0.00 0.00 82 1009.1
20260506111022 59 200 2.0 8.0 0.00 0.00 0.00 82 1009.0
20260506110523 60 183 2.0 5.0 0.00 0.00 0.00 82 1008.9
20260506110022 59 205 2.0 6.0 0.00 0.00 0.00 83 1008.8
20260506105522 59 149 3.0 8.0 0.00 0.00 0.00 83 1008.8
20260506105022 59 70 2.0 6.0 0.00 0.00 0.00 84 1008.8
20260506104522 59 202 2.0 5.0 0.00 0.00 0.00 84 1008.8
20260506104022 58 190 1.0 6.0 0.00 0.00 0.00 84 1008.9
20260506103522 58 213 2.0 6.0 0.00 0.00 0.00 84 1008.7
20260506103021 58 181 2.0 5.0 0.00 0.00 0.00 84 1009.0
20260506102522 58 153 2.0 3.0 0.00 0.00 0.00 84 1009.1
20260506102021 59 235 2.0 7.0 0.00 0.00 0.00 84 1008.9
20260506101522 58 190 2.0 5.0 0.00 0.00 0.00 84 1008.9
20260506101022 58 166 2.0 5.0 0.00 0.00 0.00 84 1008.9
20260506100522 58 237 2.0 6.0 0.00 0.00 0.00 84 1008.7
20260506100021 58 208 2.0 5.0 0.00 0.00 0.00 85 1008.6
20260506095022 58 157 2.0 7.0 0.00 0.00 0.00 85 1008.6
20260506094522 58 155 2.0 5.0 0.00 0.00 0.00 84 1008.7
20260506094022 58 227 2.0 7.0 0.00 0.00 0.00 84 1008.5
20260506093522 58 203 2.0 5.0 0.00 0.00 0.00 84 1008.6
20260506093022 58 210 2.0 5.0 0.00 0.00 0.00 83 1008.6
20260506092522 58 157 2.0 7.0 0.00 0.00 0.00 83 1008.6
20260506092021 59 188 3.0 6.0 0.00 0.00 0.00 83 1008.6
20260506091021 58 180 2.0 5.0 0.00 0.00 0.00 83 1008.7
20260506090522 59 175 3.0 6.0 0.00 0.00 0.00 83 1008.7
20260506090021 59 114 3.0 7.0 0.00 0.00 0.00 83 1008.4
20260506085522 59 209 3.0 7.0 0.00 0.00 0.00 83 1008.6
20260506085022 59 195 3.0 7.0 0.00 0.00 0.00 82 1008.6
20260506084522 59 153 2.0 6.0 0.00 0.00 0.00 83 1008.6
20260506083522 59 234 3.0 7.0 0.00 0.00 0.00 83 1008.6
20260506083022 59 192 3.0 5.0 0.00 0.00 0.00 82 1008.7
20260506081522 59 230 2.0 5.0 0.00 0.00 0.00 82 1008.8
20260506081021 59 221 2.0 5.0 0.00 0.00 0.00 81 1008.7
20260506080521 59 150 2.0 5.0 0.00 0.00 0.00 81 1008.7
20260506073522 59 201 3.0 8.0 0.00 0.00 0.00 79 1009.0
20260506072521 59 147 2.0 7.0 0.00 0.00 0.00 79 1008.7
20260506072022 60 202 2.0 6.0 0.00 0.00 0.00 78 1008.7
20260506071521 60 184 3.0 13.0 0.00 0.00 0.00 78 1008.7
20260506071022 60 131 4.0 9.0 0.00 0.00 0.00 77 1008.6
20260506070522 60 235 2.0 7.0 0.00 0.00 0.00 77 1008.5
20260506062021 62 238 3.0 10.0 0.00 0.00 0.00 72 1008.3
20260506061021 62 210 3.0 6.0 0.00 0.00 0.00 72 1008.5
20260506060521 62 218 3.0 6.0 0.00 0.00 0.00 71 1008.4
20260506051022 62 210 2.0 12.0 0.00 0.00 0.00 67 1008.7
20260506045021 63 210 3.0 12.0 0.00 0.00 0.00 65 1008.9
20260506044521 63 190 3.0 10.0 0.00 0.00 0.00 65 1008.9
20260506044021 62 210 3.0 9.0 0.00 0.00 0.00 65 1009.0
20260506043021 63 224 3.0 7.0 0.00 0.00 0.00 65 1009.0
20260506042521 62 124 4.0 8.0 0.00 0.00 0.00 64 1008.9
20260506042021 62 223 2.0 6.0 0.00 0.00 0.00 65 1008.9
20260506041021 62 134 3.0 7.0 0.00 0.00 0.00 64 1009.0
20260506040521 62 197 2.0 8.0 0.00 0.00 0.00 63 1008.9
20260506040021 62 193 3.0 7.0 0.00 0.00 0.00 64 1009.0
20260506035521 62 272 3.0 10.0 0.00 0.00 0.00 63 1008.9
20260506035021 62 164 3.0 8.0 0.00 0.00 0.00 63 1008.9
20260506034021 63 203 3.0 8.0 0.00 0.00 0.00 63 1008.8
20260506033521 62 181 3.0 8.0 0.00 0.00 0.00 63 1008.8
20260506033021 62 142 4.0 7.0 0.00 0.00 0.00 63 1008.6
20260506032521 62 309 3.0 9.0 0.00 0.00 0.00 64 1008.6
20260506032021 62 193 3.0 6.0 0.00 0.00 0.00 63 1008.8
20260506031521 62 267 3.0 6.0 0.00 0.00 0.00 63 1008.6
20260506031020 62 207 3.0 7.0 0.00 0.00 0.00 63 1008.6
20260506030521 62 246 3.0 7.0 0.00 0.00 0.00 63 1008.8
20260506025521 62 189 3.0 8.0 0.00 0.00 0.00 63 1008.6
20260506025020 62 208 3.0 6.0 0.00 0.00 0.00 64 1008.7
20260506023520 62 174 3.0 6.0 0.00 0.00 0.00 63 1008.7
20260506022520 62 194 3.0 8.0 0.00 0.00 0.00 62 1008.8
20260506022020 62 196 4.0 12.0 0.00 0.00 0.00 62 1008.6
20260506021520 62 213 3.0 7.0 0.00 0.00 0.00 62 1008.6
20260506021021 62 213 3.0 9.0 0.00 0.00 0.00 62 1008.6
20260506020521 62 190 3.0 8.0 0.00 0.00 0.00 61 1008.6
20260506020020 62 218 3.0 7.0 0.00 0.00 0.00 62 1008.7
20260506015520 62 190 3.0 10.0 0.00 0.00 0.00 61 1008.7
20260506015020 62 185 3.0 9.0 0.00 0.00 0.00 60 1008.7
20260506014020 63 227 3.0 14.0 0.00 0.00 0.00 60 1008.7
20260506013521 63 211 3.0 8.0 0.00 0.00 0.00 60 1008.5
20260506013021 63 215 3.0 8.0 0.00 0.00 0.00 59 1008.7
20260506012021 63 188 3.0 7.0 0.00 0.00 0.00 58 1008.4
20260506011520 64 172 3.0 6.0 0.00 0.00 0.00 58 1008.4
20260506010021 64 168 4.0 8.0 0.00 0.00 0.00 56 1008.1
20260506005521 65 206 3.0 9.0 0.00 0.00 0.00 56 1008.1
20260506005020 65 194 3.0 12.0 0.00 0.00 0.00 56 1008.1
20260506004020 65 149 4.0 12.0 0.00 0.00 0.00 56 1008.1
20260506003520 65 140 3.0 8.0 0.00 0.00 0.00 56 1008.0
20260506003021 65 217 2.0 6.0 0.00 0.00 0.00 57 1007.9
20260506002520 65 196 2.0 8.0 0.00 0.00 0.00 56 1007.6
20260506002021 65 238 3.0 9.0 0.00 0.00 0.00 56 1007.6
20260506001021 66 264 3.0 8.0 0.00 0.00 0.00 54 1007.4
20260506000520 66 213 2.0 10.0 0.00 0.00 0.00 54 1007.3
20260506000021 66 206 4.0 10.0 0.00 0.00 0.00 54 1007.3
20260505235520 67 162 3.0 6.0 0.00 0.00 0.00 53 1007.1
20260505235020 67 168 3.0 6.0 0.00 0.00 0.00 52 1007.1
20260505234520 67 200 2.0 8.0 0.00 0.00 0.00 52 1006.9
20260505234020 67 200 2.0 7.0 0.00 0.00 0.00 51 1006.9
20260505233521 68 166 2.0 10.0 0.00 0.00 0.00 52 1006.9
20260505233020 68 185 3.0 8.0 0.00 0.00 0.00 53 1006.8
20260505232521 68 201 3.0 7.0 0.00 0.00 0.00 51 1006.9
20260505232020 68 183 3.0 7.0 0.00 0.00 0.00 50 1006.7
20260505231521 69 200 3.0 7.0 0.00 0.00 0.00 49 1006.7
20260505231020 69 165 3.0 10.0 0.00 0.00 0.00 50 1006.6
20260505230520 69 111 5.0 10.0 0.00 0.00 0.00 48 1006.4
20260505230020 69 145 3.0 7.0 0.00 0.00 0.00 49 1006.4
20260505225520 70 170 2.0 6.0 0.00 0.00 0.00 49 1006.4
20260505225020 70 89 3.0 10.0 0.00 0.00 0.00 48 1006.2
20260505224520 70 225 3.0 10.0 0.00 0.00 0.00 47 1006.2
20260505224020 71 183 2.0 6.0 0.00 0.00 0.00 47 1006.2
20260505223521 72 174 3.0 8.0 0.00 0.00 0.00 46 1005.9
20260505222520 72 116 4.0 12.0 0.00 0.00 0.00 44 1005.7
20260505222020 72 173 5.0 10.0 0.00 0.00 0.00 44 1005.7
20260505221520 72 188 3.0 8.0 0.00 0.00 0.00 44 1005.8
20260505221020 73 202 3.0 8.0 0.00 0.00 0.00 45 1005.9
20260505220520 73 107 3.0 10.0 0.00 0.00 0.00 45 1005.8
20260505220020 73 226 3.0 9.0 0.00 0.00 0.00 45 1005.9
20260505215520 73 211 3.0 8.0 0.00 0.00 0.00 43 1005.9
20260505215020 73 213 4.0 9.0 0.00 0.00 0.00 45 1005.9
20260505214520 73 196 5.0 10.0 0.00 0.00 0.00 43 1005.8
20260505214020 74 112 3.0 10.0 0.00 0.00 0.00 44 1005.8
20260505213520 74 167 3.0 8.0 0.00 0.00 0.00 43 1005.7
20260505213020 74 193 5.0 10.0 0.00 0.00 0.00 42 1005.7
20260505212520 74 190 5.0 12.0 0.00 0.00 0.00 42 1005.7
20260505212020 75 180 5.0 13.0 0.00 0.00 0.00 41 1005.5
20260505211520 75 284 3.0 9.0 0.00 0.00 0.00 42 1005.4
20260505211019 76 196 5.0 9.0 0.00 0.00 0.00 40 1005.4
20260505210520 76 188 5.0 15.0 0.00 0.00 0.00 41 1005.5
20260505210020 76 200 5.0 8.0 0.00 0.00 0.00 39 1005.5
20260505205519 77 246 5.0 9.0 0.00 0.00 0.00 39 1005.6
20260505205020 77 197 3.0 8.0 0.00 0.00 0.00 40 1005.6